| time (UTC) | temp C | wind direction | speed KPH | gust KPH | rain 1hr cm | rain 24hr cm | rain mn cm | humidity % | barometer mb |
| 20260504081702 | 6 | 265 | 3.2 | 4.8 | 0.00 | 0.00 | 0.00 | 71 | 1015.7 |
| 20260504081158 | 6 | 276 | 4.8 | 4.8 | 0.00 | 0.00 | 0.00 | 71 | 1015.6 |
| 20260504080655 | 6 | 276 | 1.6 | 3.2 | 0.00 | 0.00 | 0.00 | 71 | 1015.7 |
| 20260504080152 | 6 | 276 | 1.6 | 3.2 | 0.00 | 0.00 | 0.00 | 71 | 1015.7 |
| 20260504070119 | 6 | 275 | 3.2 | 4.8 | 0.00 | 0.00 | 0.00 | 70 | 1015.8 |
| 20260504050508 | 5 | 269 | 3.2 | 3.2 | 0.00 | 0.00 | 0.00 | 67 | 1016.5 |
| 20260504050005 | 5 | 269 | 3.2 | 3.2 | 0.00 | 0.00 | 0.00 | 67 | 1016.5 |
| 20260504045501 | 5 | 279 | 3.2 | 4.8 | 0.00 | 0.00 | 0.00 | 66 | 1016.5 |
| 20260504044957 | 5 | 265 | 4.8 | 4.8 | 0.00 | 0.00 | 0.00 | 67 | 1016.6 |
| 20260504044454 | 5 | 261 | 4.8 | 4.8 | 0.00 | 0.00 | 0.00 | 69 | 1016.5 |
| 20260504043951 | 5 | 270 | 4.8 | 4.8 | 0.00 | 0.00 | 0.00 | 70 | 1016.6 |
| 20260504043448 | 5 | 264 | 1.6 | 3.2 | 0.00 | 0.00 | 0.00 | 70 | 1016.6 |
| 20260504042946 | 5 | 285 | 3.2 | 4.8 | 0.00 | 0.00 | 0.00 | 66 | 1016.4 |
| 20260504042442 | 5 | 254 | 3.2 | 4.8 | 0.00 | 0.00 | 0.00 | 66 | 1016.5 |
| 20260504041939 | 5 | 293 | 3.2 | 4.8 | 0.00 | 0.00 | 0.00 | 67 | 1016.5 |
| 20260504041435 | 5 | 269 | 3.2 | 4.8 | 0.00 | 0.00 | 0.00 | 66 | 1016.6 |
| 20260504040931 | 5 | 279 | 4.8 | 6.4 | 0.00 | 0.00 | 0.00 | 66 | 1016.7 |
| 20260504040429 | 5 | 286 | 6.4 | 6.4 | 0.00 | 0.00 | 0.00 | 65 | 1016.7 |
| 20260504035925 | 5 | 261 | 6.4 | 6.4 | 0.00 | 0.00 | 0.00 | 64 | 1016.8 |
| 20260504035423 | 5 | 296 | 4.8 | 6.4 | 0.00 | 0.00 | 0.00 | 65 | 1016.6 |
| 20260504034919 | 5 | 289 | 3.2 | 3.2 | 0.00 | 0.00 | 0.00 | 68 | 1016.5 |
| 20260504034417 | 5 | 289 | 3.2 | 3.2 | 0.00 | 0.00 | 0.00 | 68 | 1016.5 |
| 20260504033914 | 5 | 266 | 3.2 | 4.8 | 0.00 | 0.00 | 0.00 | 68 | 1016.5 |
| 20260504033412 | 5 | 278 | 4.8 | 6.4 | 0.00 | 0.00 | 0.00 | 66 | 1016.5 |
| 20260504032908 | 5 | 275 | 3.2 | 4.8 | 0.00 | 0.00 | 0.00 | 66 | 1016.6 |
| 20260504032405 | 5 | 268 | 1.6 | 1.6 | 0.00 | 0.00 | 0.00 | 67 | 1016.6 |
| 20260504031902 | 5 | 261 | 1.6 | 3.2 | 0.00 | 0.00 | 0.00 | 65 | 1016.4 |
| 20260504031359 | 6 | 261 | 1.6 | 1.6 | 0.00 | 0.00 | 0.00 | 65 | 1016.5 |
| 20260504030855 | 6 | 250 | 3.2 | 3.2 | 0.00 | 0.00 | 0.00 | 61 | 1016.4 |
| 20260504030353 | 6 | 284 | 4.8 | 6.4 | 0.00 | 0.00 | 0.00 | 59 | 1016.3 |
| 20260504025848 | 6 | 276 | 3.2 | 4.8 | 0.00 | 0.00 | 0.00 | 60 | 1016.5 |
| 20260504025346 | 6 | 285 | 3.2 | 4.8 | 0.00 | 0.00 | 0.00 | 61 | 1016.3 |
| 20260504024842 | 6 | 283 | 3.2 | 4.8 | 0.00 | 0.00 | 0.00 | 62 | 1016.4 |
| 20260504024339 | 6 | 279 | 4.8 | 6.4 | 0.00 | 0.00 | 0.00 | 62 | 1016.6 |
| 20260504023836 | 6 | 270 | 3.2 | 6.4 | 0.00 | 0.00 | 0.00 | 64 | 1016.3 |
| 20260504023333 | 6 | 279 | 3.2 | 4.8 | 0.00 | 0.00 | 0.00 | 63 | 1016.6 |
| 20260504022828 | 6 | 268 | 3.2 | 3.2 | 0.00 | 0.00 | 0.00 | 62 | 1016.3 |
| 20260504022325 | 6 | 244 | 3.2 | 4.8 | 0.00 | 0.00 | 0.00 | 62 | 1016.6 |
| 20260504021821 | 6 | 255 | 3.2 | 3.2 | 0.00 | 0.00 | 0.00 | 63 | 1016.4 |
| 20260504021319 | 7 | 259 | 1.6 | 3.2 | 0.00 | 0.00 | 0.00 | 60 | 1016.4 |
| 20260504020816 | 6 | 262 | 1.6 | 4.8 | 0.00 | 0.00 | 0.00 | 60 | 1016.3 |
| 20260504020313 | 7 | 267 | 3.2 | 6.4 | 0.00 | 0.00 | 0.00 | 59 | 1016.3 |
| 20260504015809 | 7 | 343 | 0.0 | 0.0 | 0.00 | 0.00 | 0.00 | 59 | 1016.3 |
| 20260504015305 | 7 | 343 | 0.0 | 0.0 | 0.00 | 0.00 | 0.00 | 61 | 1016.3 |
| 20260504014801 | 7 | 343 | 0.0 | 0.0 | 0.00 | 0.00 | 0.00 | 57 | 1016.0 |
| 20260504014257 | 7 | 343 | 0.0 | 0.0 | 0.00 | 0.00 | 0.00 | 58 | 1016.1 |
| 20260504013755 | 7 | 343 | 0.0 | 0.0 | 0.00 | 0.00 | 0.00 | 57 | 1016.1 |
| 20260504013253 | 7 | 343 | 0.0 | 0.0 | 0.00 | 0.00 | 0.00 | 54 | 1015.9 |
| 20260504012749 | 7 | 343 | 0.0 | 0.0 | 0.00 | 0.00 | 0.00 | 53 | 1015.7 |
| 20260504012247 | 8 | 343 | 0.0 | 0.0 | 0.00 | 0.00 | 0.00 | 54 | 1015.6 |
| 20260504011744 | 8 | 343 | 0.0 | 1.6 | 0.00 | 0.00 | 0.00 | 56 | 1015.8 |
| 20260504011240 | 8 | 343 | 0.0 | 1.6 | 0.00 | 0.00 | 0.00 | 56 | 1015.8 |
| 20260504010736 | 8 | 343 | 0.0 | 1.6 | 0.00 | 0.00 | 0.00 | 55 | 1015.6 |
| 20260504010232 | 8 | 343 | 1.6 | 1.6 | 0.00 | 0.00 | 0.00 | 54 | 1015.6 |
| 20260504005729 | 8 | 343 | 1.6 | 1.6 | 0.00 | 0.00 | 0.00 | 53 | 1015.6 |
| 20260504005226 | 8 | 343 | 1.6 | 3.2 | 0.00 | 0.00 | 0.00 | 54 | 1015.4 |
| 20260504004724 | 9 | 343 | 3.2 | 3.2 | 0.00 | 0.00 | 0.00 | 52 | 1015.6 |
| 20260504004221 | 9 | 343 | 0.0 | 1.6 | 0.00 | 0.00 | 0.00 | 52 | 1015.6 |
| 20260504003717 | 10 | 343 | 0.0 | 0.0 | 0.00 | 0.00 | 0.00 | 49 | 1015.5 |
| 20260504003214 | 9 | 343 | 1.6 | 3.2 | 0.00 | 0.00 | 0.00 | 51 | 1015.3 |
| 20260504002711 | 10 | 343 | 1.6 | 3.2 | 0.00 | 0.00 | 0.00 | 50 | 1015.4 |
| 20260504002208 | 10 | 343 | 1.6 | 3.2 | 0.00 | 0.00 | 0.00 | 48 | 1015.4 |
| 20260504001706 | 11 | 334 | 3.2 | 4.8 | 0.00 | 0.00 | 0.00 | 46 | 1015.5 |
| 20260504001202 | 11 | 331 | 4.8 | 4.8 | 0.00 | 0.00 | 0.00 | 41 | 1015.5 |
| 20260504000659 | 12 | 320 | 3.2 | 3.2 | 0.00 | 0.00 | 0.00 | 40 | 1015.3 |
| 20260504000156 | 12 | 318 | 1.6 | 3.2 | 0.00 | 0.00 | 0.00 | 37 | 1015.5 |
| 20260503235654 | 12 | 312 | 3.2 | 3.2 | 0.00 | 0.00 | 0.00 | 34 | 1015.3 |
| 20260503235151 | 12 | 311 | 1.6 | 3.2 | 0.00 | 0.00 | 0.00 | 34 | 1015.3 |
| 20260503234649 | 13 | 311 | 1.6 | 1.6 | 0.00 | 0.00 | 0.00 | 34 | 1015.4 |
| 20260503234147 | 13 | 328 | 6.4 | 11.3 | 0.00 | 0.00 | 0.00 | 33 | 1015.2 |
| 20260503233643 | 13 | 335 | 8.0 | 11.3 | 0.00 | 0.00 | 0.00 | 33 | 1015.2 |
| 20260503233139 | 13 | 288 | 3.2 | 9.7 | 0.00 | 0.00 | 0.00 | 33 | 1015.2 |
| 20260503232636 | 13 | 318 | 4.8 | 9.7 | 0.00 | 0.00 | 0.00 | 32 | 1015.3 |
| 20260503232133 | 13 | 273 | 3.2 | 6.4 | 0.00 | 0.00 | 0.00 | 33 | 1015.4 |
| 20260503231632 | 14 | 318 | 3.2 | 3.2 | 0.00 | 0.00 | 0.00 | 31 | 1015.2 |
| 20260503231127 | 14 | 281 | 4.8 | 14.5 | 0.00 | 0.00 | 0.00 | 32 | 1015.2 |
| 20260503230625 | 14 | 351 | 3.2 | 6.4 | 0.00 | 0.00 | 0.00 | 31 | 1015.2 |
| 20260503230122 | 14 | 306 | 8.0 | 9.7 | 0.00 | 0.00 | 0.00 | 31 | 1015.2 |
| 20260503225619 | 15 | 350 | 6.4 | 12.9 | 0.00 | 0.00 | 0.00 | 31 | 1015.2 |
| 20260503225119 | 15 | 272 | 3.2 | 3.2 | 0.00 | 0.00 | 0.00 | 32 | 1015.3 |
| 20260503224616 | 15 | 327 | 4.8 | 11.3 | 0.00 | 0.00 | 0.00 | 33 | 1015.1 |
| 20260503224114 | 14 | 317 | 3.2 | 4.8 | 0.00 | 0.00 | 0.00 | 32 | 1015.1 |
| 20260503223612 | 14 | 288 | 8.0 | 11.3 | 0.00 | 0.00 | 0.00 | 30 | 1015.2 |
| 20260503223108 | 15 | 359 | 11.3 | 12.9 | 0.00 | 0.00 | 0.00 | 30 | 1014.9 |
| 20260503222606 | 15 | 253 | 3.2 | 4.8 | 0.00 | 0.00 | 0.00 | 32 | 1015.1 |
| 20260503222103 | 15 | 279 | 3.2 | 12.9 | 0.00 | 0.00 | 0.00 | 30 | 1014.8 |
| 20260503221601 | 15 | 345 | 3.2 | 9.7 | 0.00 | 0.00 | 0.00 | 30 | 1015.4 |
| 20260503221058 | 15 | 341 | 4.8 | 6.4 | 0.00 | 0.00 | 0.00 | 30 | 1015.3 |
| 20260503220555 | 15 | 333 | 3.2 | 9.7 | 0.00 | 0.00 | 0.00 | 31 | 1015.2 |
| 20260503220052 | 15 | 343 | 9.7 | 11.3 | 0.00 | 0.00 | 0.00 | 30 | 1015.3 |
| 20260503215549 | 15 | 319 | 6.4 | 12.9 | 0.00 | 0.00 | 0.00 | 30 | 1015.2 |
| 20260503215046 | 15 | 358 | 17.7 | 22.5 | 0.00 | 0.00 | 0.00 | 29 | 1015.2 |
| 20260503214544 | 15 | 320 | 11.3 | 16.1 | 0.00 | 0.00 | 0.00 | 30 | 1015.2 |
| 20260503214040 | 15 | 50 | 12.9 | 14.5 | 0.00 | 0.00 | 0.00 | 29 | 1015.3 |
| 20260503213539 | 15 | 37 | 9.7 | 20.9 | 0.00 | 0.00 | 0.00 | 30 | 1015.6 |
| 20260503213035 | 15 | 345 | 9.7 | 16.1 | 0.00 | 0.00 | 0.00 | 30 | 1015.4 |
| 20260503212532 | 15 | 277 | 17.7 | 22.5 | 0.00 | 0.00 | 0.00 | 30 | 1015.2 |
| 20260503212030 | 16 | 311 | 9.7 | 11.3 | 0.00 | 0.00 | 0.00 | 30 | 1015.1 |
| 20260503211526 | 15 | 291 | 4.8 | 6.4 | 0.00 | 0.00 | 0.00 | 31 | 1015.3 |
| 20260503211022 | 15 | 293 | 12.9 | 17.7 | 0.00 | 0.00 | 0.00 | 29 | 1015.6 |
| 20260503210519 | 15 | 315 | 8.0 | 14.5 | 0.00 | 0.00 | 0.00 | 30 | 1015.3 |
| 20260503210015 | 15 | 72 | 12.9 | 14.5 | 0.00 | 0.00 | 0.00 | 32 | 1015.6 |
| 20260503205512 | 15 | 355 | 11.3 | 16.1 | 0.00 | 0.00 | 0.00 | 30 | 1015.4 |
| 20260503205008 | 14 | 305 | 16.1 | 17.7 | 0.00 | 0.00 | 0.00 | 31 | 1015.5 |
| 20260503204505 | 16 | 332 | 11.3 | 16.1 | 0.00 | 0.00 | 0.00 | 30 | 1015.7 |
| 20260503204002 | 15 | 317 | 14.5 | 25.7 | 0.00 | 0.00 | 0.00 | 30 | 1015.6 |
| 20260503203459 | 15 | 98 | 3.2 | 9.7 | 0.00 | 0.00 | 0.00 | 31 | 1015.4 |
| 20260503202955 | 15 | 308 | 4.8 | 6.4 | 0.00 | 0.00 | 0.00 | 30 | 1015.3 |
| 20260503202454 | 15 | 303 | 9.7 | 17.7 | 0.00 | 0.00 | 0.00 | 31 | 1015.7 |
| 20260503201952 | 15 | 313 | 11.3 | 17.7 | 0.00 | 0.00 | 0.00 | 34 | 1015.6 |
| 20260503201450 | 15 | 284 | 11.3 | 14.5 | 0.00 | 0.00 | 0.00 | 32 | 1015.5 |
| 20260503200947 | 15 | 12 | 11.3 | 16.1 | 0.00 | 0.00 | 0.00 | 30 | 1015.8 |
| 20260503200443 | 15 | 318 | 12.9 | 20.9 | 0.00 | 0.00 | 0.00 | 30 | 1015.8 |
| 20260503195940 | 15 | 58 | 3.2 | 17.7 | 0.00 | 0.00 | 0.00 | 31 | 1016.1 |
| 20260503195437 | 16 | 336 | 4.8 | 11.3 | 0.00 | 0.00 | 0.00 | 34 | 1015.9 |
| 20260503194933 | 15 | 62 | 3.2 | 22.5 | 0.00 | 0.00 | 0.00 | 30 | 1015.9 |
| 20260503194430 | 15 | 352 | 8.0 | 17.7 | 0.00 | 0.00 | 0.00 | 32 | 1016.0 |
| 20260503193926 | 14 | 261 | 14.5 | 25.7 | 0.00 | 0.00 | 0.00 | 31 | 1016.3 |
| 20260503193421 | 14 | 307 | 16.1 | 20.9 | 0.00 | 0.00 | 0.00 | 32 | 1016.1 |
| 20260503192917 | 14 | 262 | 8.0 | 14.5 | 0.00 | 0.00 | 0.00 | 32 | 1016.2 |
| 20260503192414 | 15 | 315 | 9.7 | 27.4 | 0.00 | 0.00 | 0.00 | 33 | 1016.3 |
| 20260503191909 | 15 | 2 | 6.4 | 9.7 | 0.00 | 0.00 | 0.00 | 33 | 1016.4 |
| 20260503191408 | 14 | 50 | 1.6 | 9.7 | 0.00 | 0.00 | 0.00 | 34 | 1016.4 |
| 20260503190903 | 14 | 326 | 12.9 | 20.9 | 0.00 | 0.00 | 0.00 | 31 | 1016.4 |
| 20260503190401 | 14 | 23 | 8.0 | 17.7 | 0.00 | 0.00 | 0.00 | 34 | 1016.4 |
| 20260503185857 | 13 | 304 | 11.3 | 25.7 | 0.00 | 0.00 | 0.00 | 31 | 1016.5 |
| 20260503185354 | 14 | 271 | 14.5 | 17.7 | 0.00 | 0.00 | 0.00 | 32 | 1016.6 |
| 20260503184854 | 13 | 324 | 9.7 | 16.1 | 0.00 | 0.00 | 0.00 | 32 | 1016.7 |
| 20260503184350 | 14 | 308 | 3.2 | 9.7 | 0.00 | 0.00 | 0.00 | 32 | 1016.6 |
| 20260503183846 | 14 | 300 | 3.2 | 11.3 | 0.00 | 0.00 | 0.00 | 32 | 1016.9 |
| 20260503183343 | 14 | 295 | 4.8 | 17.7 | 0.00 | 0.00 | 0.00 | 31 | 1016.9 |
| 20260503182840 | 13 | 313 | 11.3 | 12.9 | 0.00 | 0.00 | 0.00 | 33 | 1016.8 |
| 20260503182340 | 14 | 346 | 9.7 | 20.9 | 0.00 | 0.00 | 0.00 | 32 | 1016.7 |
| 20260503181836 | 13 | 34 | 1.6 | 11.3 | 0.00 | 0.00 | 0.00 | 36 | 1016.8 |
| 20260503181333 | 13 | 338 | 6.4 | 14.5 | 0.00 | 0.00 | 0.00 | 31 | 1016.7 |
| 20260503180829 | 13 | 339 | 3.2 | 4.8 | 0.00 | 0.00 | 0.00 | 32 | 1016.8 |
| 20260503180328 | 13 | 321 | 6.4 | 24.1 | 0.00 | 0.00 | 0.00 | 33 | 1016.9 |
| 20260503175824 | 13 | 299 | 11.3 | 17.7 | 0.00 | 0.00 | 0.00 | 31 | 1016.9 |
| 20260503175322 | 13 | 3 | 4.8 | 24.1 | 0.00 | 0.00 | 0.00 | 33 | 1017.1 |
| 20260503174817 | 13 | 323 | 3.2 | 24.1 | 0.00 | 0.00 | 0.00 | 31 | 1017.0 |
| 20260503174316 | 13 | 291 | 12.9 | 16.1 | 0.00 | 0.00 | 0.00 | 33 | 1017.0 |
| 20260503173811 | 13 | 10 | 12.9 | 22.5 | 0.00 | 0.00 | 0.00 | 30 | 1017.3 |
| 20260503173307 | 12 | 32 | 14.5 | 16.1 | 0.00 | 0.00 | 0.00 | 33 | 1017.0 |
| 20260503172804 | 12 | 340 | 6.4 | 12.9 | 0.00 | 0.00 | 0.00 | 34 | 1017.1 |
| 20260503172301 | 12 | 19 | 11.3 | 20.9 | 0.00 | 0.00 | 0.00 | 34 | 1017.3 |
| 20260503171757 | 12 | 57 | 12.9 | 17.7 | 0.00 | 0.00 | 0.00 | 33 | 1017.5 |
| 20260503171254 | 12 | 284 | 16.1 | 22.5 | 0.00 | 0.00 | 0.00 | 36 | 1017.5 |
| 20260503170752 | 12 | 329 | 4.8 | 6.4 | 0.00 | 0.00 | 0.00 | 36 | 1017.5 |
| 20260503170248 | 12 | 23 | 14.5 | 27.4 | 0.00 | 0.00 | 0.00 | 37 | 1017.7 |
| 20260503160210 | 10 | 266 | 6.4 | 11.3 | 0.00 | 0.00 | 0.00 | 45 | 1018.4 |
| 20260503150641 | 9 | 314 | 6.4 | 17.7 | 0.00 | 0.00 | 0.00 | 45 | 1018.7 |
| 20260503150136 | 8 | 289 | 6.4 | 20.9 | 0.00 | 0.00 | 0.00 | 46 | 1018.8 |
| 20260503131030 | 7 | 331 | 6.4 | 20.9 | 0.00 | 0.00 | 0.00 | 54 | 1018.4 |
| 20260503130527 | 6 | 340 | 14.5 | 20.9 | 0.00 | 0.00 | 0.00 | 55 | 1018.6 |
| 20260503110418 | 3 | 303 | 0.0 | 1.6 | 0.00 | 0.00 | 0.00 | 71 | 1017.7 |